Location: Juzet
(42.9779°N, 0.7597°E)
Time: 18:21:29
(UTC+00:00)

CENTAUR R/B - Pass Details

Date: 14 July 2020
Orbit: 756 x 1432 km, 63.5° (Epoch: 08 August)

Event Time Altitude Azimuth Distance (km) Brightness Sun altitude
Exits shadow 03:08:52 - 176° (S) 2,912 4.6 -12.5°
Reaches altitude 10° 03:10:13 10° 170° (S) 2,473 4.3 -12.4°
Maximum altitude 03:15:07 30° 110° (ESE) 1,611 3.9 -11.7°
Drops below altitude 10° 03:20:41 10° 53° (NE) 2,847 6.5 -11.0°
Sets 03:23:51 0° 43° (NE) 3,925 7.9 -10.6°
